SCP
0 0 0 0 0 0 0 0 0 0 0 0 0 0 0 0 0 0 0 0 0 0 0 0 0 0 0 0 0 0 0 0 0 0 0 0 0 0 0 0 0 0 0 0 0 0 0
0 -0 0 0 0 0 0 0 0 0 0 0 0 0 0 -0 -0 -0 -0 -0 -0 -0 -0 -0 0 -0 -0 -0 0 0 0 0 0 0 0 0 0 0 0 0 0 0 0 0 0 0 0
0 -0 -0 -0 -0 -0 0 0 0 0 0 0 0 0 0 0 0 -0 -0 -0 -0 -0 -0 -0 -0 0 -0 0 0 0 0 0 0 0 0 0 0 0 0 0 0 0 0 0 0 0 0
0 0 0 0 -0 -0 -0 -0 -0 -0 -0 0 0 0 0 -0 -0 -0 -0 0 0 -0 -0 0 0 -0 -0 0 0 0 0 0 0 0 0 0 0 0 0 0 0 0 0 0 0 0 0
0 0 0 0 -0 -0 -0 -0 -0 -0 0 -0 -0 -0 -0 -0 -0 -0 -0 -0 -0 0 0 0 -0 -0 -0 0 0 0 0 0 0 0 0 0 0 0 0 0 0 0 0 0 0 0 0
-0 -0 0 0 0 0 0 0 0 0 -0 -0 -0 -0 -0 -0 -0 -0 -0 -0 -0 -0 0 0 0 -0 0 0 0 -0 0 0 0 0 0 0 0 0 0 0 0 0 0 0 0 0 0
0 -0 -0 -0 0 0 -0 0 0 0 -0 -0 -0 -0 -0 -0 -0 -0 0 -0 -0 -0 0 0 -0 -0 -0 0 0 0 0 0 0 0 0 0 0 0 0 0 0 0 0 0 0 0 0
0 -0 -0 -0 -0 0 -0 -0 0 0 0 -0 -0 -0 -0 -0 -0 -0 0 0 -0 0 -0 -0 0 0 -0 0 0 0 -0 0 0 0 0 0 0 0 0 0 0 0 0 0 0 0 0
0 0 0 -0 -0 -0 -0 0 0 0 0 0 0 -0 -0 -0 -0 0 0 0 0 0 -0 -0 0 0 0 0 0 0 0 0 0 0 0 0 0 0 0 0 0 0 0 0 0 0 0
0 0 0 0 0 -0 -0 0 0 0 0 0 0 0 -0 -0 0 0 0 0 0 0 0 0 0 -0 0 0 0 -0 -0 0 0 0 0 0 0 0 0 0 0 0 0 0 0 0 0
0 0 0 0 0 0 -0 0 0 0 0 0 0 0 -0 -0 0 0 0 0 0 0 0 0 0 -0 0 0 0 0 0 0 0 0 0 0 0 0 0 0 0 0 0 0 0 0 0
0 0 0 0 0 0 0 0 0 0 0 0 0 0 -0 0 0 0 0 0 0 0 0 0 0 0 0 0 0 0 0 0 0 0 0 0 0 0 0 0 0 0 0 0 0 0 0
0 0 0 0 0 0 0 0 0 0 0 0 0 0 0 0 0 0 0 0 0 0 0 0 0 0 0 -0 0 0 -0 0 -0 0 0 0 0 0 0 0 0 0 0 0 0 0 0
0 0 0 0 0 0 0 0 0 0 0 0 0 0 0 0 0 0 0 0 0 0 0 0 0 0 0 0 0 0 0 0 0 0 0 0 0 0 0 0 0 0 0 0 0 0 0
0 0 0 0 0 0 0 0 0 0 0 0 0 0 0 0 0 0 0 0 0 0 0 0 0 0 0 0 -0 0 0 0 0 0 0 0 0 0 0 0 0 0 0 0 0 0 0
0 0 0 0 0 0 0 0 0 0 0 0 0 0 0 0 0 0 0 0 0 0 0 0 0 0 0 -0 -0 0 0 0 0 0 0 0 0 0 0 0 0 0 0 0 0 0 0
0 0 0 0 0 0 0 0 0 0 0 0 0 0 0 0 0 0 0 0 0 0 0 0 0 0 0 0 -0 0 -0 0 0 0 0 0 0 0 0 0 0 0 0 0 0 0 0
0 0 0 0 0 0 0 0 0 0 0 0 0 0 0 0 0 0 0 0 0 0 0 0 0 0 0 0 0 0 0 0 0 -0 0 0 0 0 0 0 0 0 0 0 0 0 0
-0 0 0 0 0 0 0 0 0 0 0 0 0 0 0 0 0 0 0 0 0 0 0 0 0 0 0 0 0 0 -0 0 -0 0 -0 0 0 0 0 0 0 0 0 0 0 0 0
-0 0 0 0 0 0 0 0 0 0 0 0 0 0 0 0 0 0 0 0 0 0 0 0 0 0 0 0 0 0 0 -0 -0 -0 0 0 0 0 0 0 0 0 0 0 0 0 -0
0 0 0 0 0 0 0 0 0 0 0 0 0 0 0 0 0 0 0 0 0 0 0 0 0 0 0 0 0 0 0 0 -0 -0 -0 0 0 0 0 0 0 0 0 0 0 0 -0
0 0 0 0 0 0 0 0 0 0 0 0 0 0 0 0 0 0 0 0 0 0 0 0 0 0 0 0 0 -0 -0 0 -0 0 0 0 0 -0 -0 0 0 0 0 0 0 0 -0
0 0 0 0 0 0 0 0 0 0 0 0 0 0 0 0 0 0 0 0 0 0 0 0 0 -0 0 0 0 0 -0 -0 -0 0 -0 -0 -0 -0 0 0 -0 0 -0 0 0 0 0
0 0 0 0 0 0 0 0 0 0 0 0 0 0 0 0 0 0 0 0 0 0 0 0 0 0 0 0 -0 0 0 -0 -0 -0 0 0 -0 -0 0 -0 0 0 0 0 0 0 0
0 0 0 0 0 0 0 0 0 0 0 0 0 0 0 0 0 0 0 0 0 0 0 0 0 0 0 0 0 0 0 0 -0 -0 -0 -0 -0 0 0 0 0 -0 0 0 0 0 0
0 0 0 0 0 0 0 0 0 0 0 0 0 0 0 0 0 0 0 0 0 0 0 0 0 0 0 -0 0 0 0 0 0 -0 0 -0 -0 -0 0 0 -0 0 0 0 0 0 0
0 0 0 0 0 0 0 0 0 0 0 0 0 0 0 0 0 0 0 0 0 0 0 0 0 0 0 -0 0 0 0 0 0 0 0 0 0 0 0 0 0 0 0 0 0 0 0
0 0 0 0 0 0 0 0 0 0 0 0 0 0 0 0 0 0 0 0 0 0 0 0 0 0 0 -0 0 0 0 0 0 0 0 0 0 0 0 0 0 0 0 0 0 0 0
0 0 0 0 0 0 0 0 0 0 0 0 0 0 0 0 0 0 0 -0 -0 -0 0 0 0 0 0 -0 0 0 0 0 0 0 0 -0 0 0 0 0 0 0 0 0 0 0 0
Wind_Speed_500mb
34 38 35 35 36 35 34 34 34 35 37 39 39 40 42 43 43 43 44 44 44 45 44 44 42 43 45 18 43 31 44 52 35 26 14 60 52 35 19 12 21 31 17 23 45 50 42
35 35 34 34 34 34 34 34 35 36 37 36 37 40 42 44 44 42 41 41 42 43 42 42 40 35 18 15 34 28 35 38 36 30 14 40 27 47 12 15 30 4 19 48 48 50 38
33 33 34 35 35 34 35 35 35 36 36 36 37 39 41 42 38 39 37 36 32 40 38 39 34 28 21 77 49 56 53 49 40 35 31 15 52 30 17 1 28 32 17 20 26 14 16
36 37 38 39 39 38 38 39 40 42 43 43 43 42 44 40 37 30 28 31 29 31 37 33 31 21 29 55 31 28 31 34 40 39 36 25 26 28 19 6 8 8 9 31 29 27 15
38 39 40 42 44 44 44 43 44 47 49 50 48 47 47 38 42 33 35 36 30 14 30 46 27 19 29 42 31 24 38 51 33 27 28 22 14 17 7 8 6 9 30 30 21 12 16
39 40 41 42 44 47 49 49 51 52 54 55 53 51 49 39 36 29 29 34 23 14 30 29 14 18 28 50 67 62 56 47 35 14 29 25 19 9 6 12 32 20 29 8 8 8 21
36 37 39 42 45 47 49 51 53 55 56 56 55 51 45 32 25 21 25 35 44 17 31 13 44 35 56 57 63 48 41 32 35 13 13 15 8 29 39 30 19 15 7 5 4 15 26
40 41 41 41 43 45 48 52 55 57 55 55 52 48 40 28 17 18 21 28 30 27 21 20 22 23 39 33 29 47 21 10 7 8 6 1 37 14 8 9 23 20 19 17 11 21 9
41 42 44 44 44 45 49 53 56 56 55 52 47 42 35 25 10 26 23 31 25 22 8 26 21 21 40 36 15 36 12 9 7 10 9 12 14 22 22 10 19 13 22 20 14 18 33
44 44 43 43 43 47 51 55 58 56 55 50 41 37 28 28 17 36 24 31 27 20 4 11 18 13 38 35 9 35 8 8 5 12 10 12 15 21 13 30 31 29 8 17 9 10 20
45 45 45 46 46 47 50 55 60 59 53 51 41 32 20 21 31 36 36 38 22 1 5 23 13 36 69 20 36 18 22 15 15 20 8 14 7 4 17 15 14 15 25 19 24 19 7
48 50 50 50 51 52 51 52 58 61 55 50 43 30 22 19 27 36 39 38 3 10 7 14 21 27 30 30 30 29 15 6 15 9 16 15 26 12 14 14 10 8 8 17 19 5 9
49 50 51 52 55 58 58 54 57 60 56 54 41 29 18 14 25 35 40 16 8 9 11 12 28 27 28 12 21 13 19 12 6 2 9 11 25 37 19 11 11 7 6 2 3 7 23
48 50 53 55 57 60 63 57 59 61 59 58 48 20 15 12 19 32 36 8 11 8 9 18 25 28 9 14 23 18 13 12 3 1 6 5 5 16 20 23 15 13 18 9 12 9 9
49 50 52 56 59 61 65 62 62 62 59 57 39 15 10 10 15 24 18 9 10 5 16 25 17 8 9 14 7 13 9 6 12 9 2 7 7 1 3 4 14 6 9 12 6 7 4
48 49 52 55 58 61 63 65 65 64 60 55 32 8 12 9 14 19 9 6 6 12 23 16 7 7 10 12 12 10 8 4 7 5 2 6 6 9 10 6 10 11 8 8 2 9 9
45 48 51 54 58 62 63 63 66 67 62 54 25 5 9 11 16 6 5 9 14 24 21 9 6 9 10 10 7 7 9 9 4 12 6 6 5 7 5 4 3 3 5 4 7 9 9
45 49 52 53 57 61 63 63 62 66 68 56 19 4 14 11 7 3 1 11 30 17 31 11 6 5 6 12 8 7 7 7 5 2 9 5 4 7 14 13 19 8 8 6 6 15 11
45 51 55 56 56 58 61 60 61 57 61 54 24 9 11 19 5 7 13 10 9 21 22 9 12 6 4 8 9 9 9 10 18 5 7 4 5 5 14 5 6 6 7 12 5 4 17
46 51 54 57 57 56 58 59 57 56 51 37 15 8 9 9 10 2 9 8 20 31 22 26 12 10 10 19 14 14 17 13 5 12 24 5 7 10 10 1 4 10 8 8 7 6 13
47 51 52 53 56 56 54 55 56 55 45 28 17 4 6 8 9 16 8 11 16 18 9 16 9 11 27 13 20 9 11 9 13 30 16 14 10 9 16 23 26 28 26 29 26 14 12
50 49 50 51 54 56 52 52 53 52 45 17 15 12 10 28 20 10 8 6 21 23 7 13 10 31 29 20 26 42 34 12 13 13 4 3 7 4 21 23 30 33 32 33 37 29 30
51 49 48 47 51 53 53 53 49 49 44 15 22 8 13 16 8 5 7 13 26 35 15 19 30 33 29 31 37 56 56 57 32 11 9 6 4 4 12 19 21 27 44 39 39 30 18
52 49 47 48 48 49 49 53 43 37 39 34 23 16 8 9 7 9 21 38 29 35 25 32 41 18 30 77 77 43 41 43 28 31 29 10 8 7 11 15 16 10 19 31 38 27 24
52 50 49 49 50 48 49 51 40 31 28 33 29 10 7 10 13 30 14 14 35 38 18 28 41 48 51 35 9 12 9 1 4 4 23 32 17 5 6 6 11 11 14 9 8 6 12
50 50 52 53 51 48 49 49 44 31 24 28 27 12 11 15 8 14 25 26 16 15 9 22 41 38 30 5 6 8 6 8 6 12 12 21 29 11 6 7 7 6 18 27 23 12 18
53 53 55 55 54 51 54 46 42 31 26 24 27 10 13 15 32 17 11 9 17 13 8 17 25 18 22 9 7 6 6 11 9 12 10 5 1 18 17 9 6 9 30 27 14 2 29
59 57 57 59 60 59 51 42 39 34 25 23 32 27 22 17 61 43 33 31 24 20 6 17 18 8 10 12 8 7 6 6 8 6 13 6 10 4 5 6 6 28 28 2 6 18 32
64 63 64 64 64 56 46 39 37 37 24 25 35 33 32 31 58 85 80 74 71 65 40 13 7 3 3 3 5 5 5 5 9 7 7 7 4 5 4 4 12 25 37 11 31 20 41
Wind_Direction_500mb
34 35 35 35 33 30 24 18 14 8 4 0 357 353 348 342 336 331 326 325 326 323 316 311 311 308 310 307 276 277 268 267 272 291 287 216 209 209 193 205 219 246 240 243 247 251 253
37 33 30 31 28 22 17 14 8 4 2 359 357 353 350 345 339 333 329 329 328 323 318 316 315 308 308 284 315 308 294 274 276 254 283 216 217 214 229 205 204 167 234 245 253 265 261
28 25 25 25 22 18 14 9 4 2 1 359 357 355 353 350 347 340 340 344 342 331 324 320 312 305 278 278 305 290 286 278 265 240 254 221 211 205 218 324 251 259 289 279 240 221 242
24 23 22 17 13 11 8 5 2 1 359 357 354 351 352 353 356 6 5 353 338 306 314 334 329 315 276 318 320 316 347 311 274 236 235 221 206 250 233 260 317 222 187 245 261 229 226
16 16 15 10 7 5 3 0 359 357 356 354 349 346 351 353 357 12 9 359 2 11 1 352 340 333 278 322 335 329 352 339 311 238 225 219 218 213 186 161 345 235 238 231 262 213 207
11 12 12 10 7 3 359 357 356 355 353 350 347 345 349 351 352 354 357 348 345 303 339 341 348 327 308 310 316 305 285 301 324 257 210 218 203 161 165 163 213 222 230 274 209 226 209
7 8 8 4 2 1 358 357 355 354 350 346 344 343 345 345 343 343 347 1 10 321 320 270 291 278 294 321 315 300 284 294 311 233 189 190 161 211 206 217 263 315 344 273 337 219 217
4 4 5 4 3 3 1 358 355 352 349 344 341 339 346 347 349 345 344 359 357 319 311 328 333 294 318 310 295 324 312 201 324 313 335 267 228 213 161 194 236 259 268 273 276 269 277
8 7 5 5 3 3 1 358 355 352 349 346 340 339 346 358 333 356 353 2 353 339 282 298 346 308 329 312 289 301 201 168 219 258 239 223 259 218 230 229 242 230 231 251 247 307 298
10 8 6 5 3 359 358 357 356 355 351 347 344 337 337 4 359 344 2 349 341 323 14 289 343 309 348 334 275 338 255 179 254 243 221 221 242 258 270 234 239 257 221 257 254 207 257
12 8 4 1 359 356 353 353 353 355 352 348 346 330 322 333 348 345 338 338 343 356 14 327 314 331 336 332 314 340 320 177 242 223 187 244 280 253 232 232 211 245 233 238 226 245 237
11 9 5 2 1 356 351 350 352 353 350 347 345 329 317 308 331 348 338 335 338 50 292 331 331 320 335 318 327 339 320 216 286 279 222 232 257 237 220 250 235 238 219 230 233 155 250
8 7 4 2 3 360 355 353 353 353 348 342 345 326 312 306 336 342 334 347 38 92 328 330 321 320 311 318 327 349 315 282 211 111 31 328 230 235 223 232 259 170 87 307 174 187 231
5 4 2 1 2 0 358 356 354 353 350 344 342 330 322 327 341 345 342 46 60 248 285 300 325 307 318 11 319 328 321 340 276 113 12 306 274 186 208 201 198 182 167 185 185 179 225
3 2 0 359 360 0 359 358 356 355 354 348 353 4 18 353 326 347 355 41 204 289 316 323 317 302 323 328 289 345 321 334 24 8 249 243 259 261 86 177 142 201 168 193 12 224 244
1 1 0 359 358 359 358 358 355 357 357 352 353 32 38 346 333 340 63 274 242 289 301 312 270 256 316 315 337 349 303 348 358 25 3 288 298 325 358 15 223 161 196 88 9 218 236
358 359 359 358 358 356 356 358 356 353 359 357 358 42 7 335 311 343 124 238 283 302 343 308 265 282 292 309 284 281 290 313 328 321 324 286 147 291 339 245 214 348 184 208 172 181 224
357 356 353 352 353 354 354 356 358 353 355 3 3 42 350 319 340 27 68 300 305 320 336 285 238 265 277 286 282 257 257 253 243 317 321 297 231 231 227 260 279 250 287 137 172 231 249
355 354 353 350 349 351 352 355 360 357 355 352 348 311 12 347 59 318 301 295 297 345 331 313 294 278 318 281 307 265 242 254 288 243 246 317 268 307 322 12 40 223 246 192 186 273 243
346 348 346 346 348 350 351 351 357 2 356 357 352 356 337 36 42 158 311 279 337 334 291 330 277 295 346 299 266 270 272 279 278 236 257 194 225 221 195 350 15 276 306 265 210 186 265
338 341 339 342 343 345 349 350 351 2 5 8 8 1 14 314 338 324 277 269 328 344 272 303 281 321 317 292 303 257 233 278 267 273 267 172 240 214 254 261 266 265 263 263 246 232 223
334 336 338 340 341 340 345 347 347 354 10 19 8 359 335 292 300 296 300 299 315 318 290 295 266 308 310 271 271 287 278 245 251 302 202 174 265 253 285 257 250 255 247 249 251 247 255
328 331 333 336 342 341 338 342 342 345 1 14 356 315 285 276 280 285 290 318 309 305 287 283 303 306 300 292 301 287 272 268 248 240 269 202 242 265 250 278 287 268 231 226 236 231 222
322 324 327 330 328 339 335 336 336 339 348 353 349 338 301 278 290 276 293 297 294 304 295 296 305 295 300 310 307 295 256 251 242 245 225 223 201 224 284 290 246 272 39 205 230 237 229
321 321 321 325 325 323 327 331 335 331 333 335 343 314 271 285 268 295 298 307 305 305 279 296 304 312 316 318 327 340 349 121 129 225 209 213 222 256 247 240 277 282 44 11 354 212 55
322 324 319 321 321 323 323 325 333 323 322 318 330 302 242 301 265 270 317 296 299 316 300 288 326 335 349 9 352 2 332 316 306 318 308 256 215 204 220 268 298 48 328 326 316 224 13
325 324 325 323 320 317 320 315 316 316 314 305 300 282 262 264 281 277 244 296 292 280 281 293 327 337 5 359 21 356 310 328 330 319 335 348 213 231 242 256 261 354 317 306 208 284 328
319 316 315 314 314 316 318 316 310 310 303 299 292 301 268 251 289 277 270 251 261 252 268 310 341 359 343 16 5 342 303 312 297 274 324 326 315 324 304 301 343 357 332 24 344 336 328
315 313 313 311 310 318 316 314 306 306 293 297 289 296 296 263 272 293 286 273 267 269 260 278 278 270 263 345 351 304 290 297 298 308 351 338 345 276 301 310 252 288 291 32 27 340 344
Wind_Speed_850mb
34 38 35 35 36 35 34 34 34 35 37 39 39 40 42 43 43 43 44 44 44 45 44 44 42 43 45 18 43 31 44 52 35 26 14 60 52 35 19 12 21 31 17 23 45 50 42
35 35 34 34 34 34 34 34 35 36 37 36 37 40 42 44 44 42 41 41 42 43 42 42 40 35 18 15 34 28 35 38 36 30 14 40 27 47 12 15 30 4 19 48 48 50 38
33 33 34 35 35 34 35 35 35 36 36 36 37 39 41 42 38 39 37 36 32 40 38 39 34 28 21 77 49 56 53 49 40 35 31 15 52 30 17 1 28 32 17 20 26 14 16
36 37 38 39 39 38 38 39 40 42 43 43 43 42 44 40 37 30 28 31 29 31 37 33 31 21 29 55 31 28 31 34 40 39 36 25 26 28 19 6 8 8 9 31 29 27 15
38 39 40 42 44 44 44 43 44 47 49 50 48 47 47 38 42 33 35 36 30 14 30 46 27 19 29 42 31 24 38 51 33 27 28 22 14 17 7 8 6 9 30 30 21 12 16
39 40 41 42 44 47 49 49 51 52 54 55 53 51 49 39 36 29 29 34 23 14 30 29 14 18 28 50 67 62 56 47 35 14 29 25 19 9 6 12 32 20 29 8 8 8 21
36 37 39 42 45 47 49 51 53 55 56 56 55 51 45 32 25 21 25 35 44 17 31 13 44 35 56 57 63 48 41 32 35 13 13 15 8 29 39 30 19 15 7 5 4 15 26
40 41 41 41 43 45 48 52 55 57 55 55 52 48 40 28 17 18 21 28 30 27 21 20 22 23 39 33 29 47 21 10 7 8 6 1 37 14 8 9 23 20 19 17 11 21 9
41 42 44 44 44 45 49 53 56 56 55 52 47 42 35 25 10 26 23 31 25 22 8 26 21 21 40 36 15 36 12 9 7 10 9 12 14 22 22 10 19 13 22 20 14 18 33
44 44 43 43 43 47 51 55 58 56 55 50 41 37 28 28 17 36 24 31 27 20 4 11 18 13 38 35 9 35 8 8 5 12 10 12 15 21 13 30 31 29 8 17 9 10 20
45 45 45 46 46 47 50 55 60 59 53 51 41 32 20 21 31 36 36 38 22 1 5 23 13 36 69 20 36 18 22 15 15 20 8 14 7 4 17 15 14 15 25 19 24 19 7
48 50 50 50 51 52 51 52 58 61 55 50 43 30 22 19 27 36 39 38 3 10 7 14 21 27 30 30 30 29 15 6 15 9 16 15 26 12 14 14 10 8 8 17 19 5 9
49 50 51 52 55 58 58 54 57 60 56 54 41 29 18 14 25 35 40 16 8 9 11 12 28 27 28 12 21 13 19 12 6 2 9 11 25 37 19 11 11 7 6 2 3 7 23
48 50 53 55 57 60 63 57 59 61 59 58 48 20 15 12 19 32 36 8 11 8 9 18 25 28 9 14 23 18 13 12 3 1 6 5 5 16 20 23 15 13 18 9 12 9 9
49 50 52 56 59 61 65 62 62 62 59 57 39 15 10 10 15 24 18 9 10 5 16 25 17 8 9 14 7 13 9 6 12 9 2 7 7 1 3 4 14 6 9 12 6 7 4
48 49 52 55 58 61 63 65 65 64 60 55 32 8 12 9 14 19 9 6 6 12 23 16 7 7 10 12 12 10 8 4 7 5 2 6 6 9 10 6 10 11 8 8 2 9 9
45 48 51 54 58 62 63 63 66 67 62 54 25 5 9 11 16 6 5 9 14 24 21 9 6 9 10 10 7 7 9 9 4 12 6 6 5 7 5 4 3 3 5 4 7 9 9
45 49 52 53 57 61 63 63 62 66 68 56 19 4 14 11 7 3 1 11 30 17 31 11 6 5 6 12 8 7 7 7 5 2 9 5 4 7 14 13 19 8 8 6 6 15 11
45 51 55 56 56 58 61 60 61 57 61 54 24 9 11 19 5 7 13 10 9 21 22 9 12 6 4 8 9 9 9 10 18 5 7 4 5 5 14 5 6 6 7 12 5 4 17
46 51 54 57 57 56 58 59 57 56 51 37 15 8 9 9 10 2 9 8 20 31 22 26 12 10 10 19 14 14 17 13 5 12 24 5 7 10 10 1 4 10 8 8 7 6 13
47 51 52 53 56 56 54 55 56 55 45 28 17 4 6 8 9 16 8 11 16 18 9 16 9 11 27 13 20 9 11 9 13 30 16 14 10 9 16 23 26 28 26 29 26 14 12
50 49 50 51 54 56 52 52 53 52 45 17 15 12 10 28 20 10 8 6 21 23 7 13 10 31 29 20 26 42 34 12 13 13 4 3 7 4 21 23 30 33 32 33 37 29 30
51 49 48 47 51 53 53 53 49 49 44 15 22 8 13 16 8 5 7 13 26 35 15 19 30 33 29 31 37 56 56 57 32 11 9 6 4 4 12 19 21 27 44 39 39 30 18
52 49 47 48 48 49 49 53 43 37 39 34 23 16 8 9 7 9 21 38 29 35 25 32 41 18 30 77 77 43 41 43 28 31 29 10 8 7 11 15 16 10 19 31 38 27 24
52 50 49 49 50 48 49 51 40 31 28 33 29 10 7 10 13 30 14 14 35 38 18 28 41 48 51 35 9 12 9 1 4 4 23 32 17 5 6 6 11 11 14 9 8 6 12
50 50 52 53 51 48 49 49 44 31 24 28 27 12 11 15 8 14 25 26 16 15 9 22 41 38 30 5 6 8 6 8 6 12 12 21 29 11 6 7 7 6 18 27 23 12 18
53 53 55 55 54 51 54 46 42 31 26 24 27 10 13 15 32 17 11 9 17 13 8 17 25 18 22 9 7 6 6 11 9 12 10 5 1 18 17 9 6 9 30 27 14 2 29
59 57 57 59 60 59 51 42 39 34 25 23 32 27 22 17 61 43 33 31 24 20 6 17 18 8 10 12 8 7 6 6 8 6 13 6 10 4 5 6 6 28 28 2 6 18 32
64 63 64 64 64 56 46 39 37 37 24 25 35 33 32 31 58 85 80 74 71 65 40 13 7 3 3 3 5 5 5 5 9 7 7 7 4 5 4 4 12 25 37 11 31 20 41
Wind_Direction_850mb
34 35 35 35 33 30 24 18 14 8 4 0 357 353 348 342 336 331 326 325 326 323 316 311 311 308 310 307 276 277 268 267 272 291 287 216 209 209 193 205 219 246 240 243 247 251 253
37 33 30 31 28 22 17 14 8 4 2 359 357 353 350 345 339 333 329 329 328 323 318 316 315 308 308 284 315 308 294 274 276 254 283 216 217 214 229 205 204 167 234 245 253 265 261
28 25 25 25 22 18 14 9 4 2 1 359 357 355 353 350 347 340 340 344 342 331 324 320 312 305 278 278 305 290 286 278 265 240 254 221 211 205 218 324 251 259 289 279 240 221 242
24 23 22 17 13 11 8 5 2 1 359 357 354 351 352 353 356 6 5 353 338 306 314 334 329 315 276 318 320 316 347 311 274 236 235 221 206 250 233 260 317 222 187 245 261 229 226
16 16 15 10 7 5 3 0 359 357 356 354 349 346 351 353 357 12 9 359 2 11 1 352 340 333 278 322 335 329 352 339 311 238 225 219 218 213 186 161 345 235 238 231 262 213 207
11 12 12 10 7 3 359 357 356 355 353 350 347 345 349 351 352 354 357 348 345 303 339 341 348 327 308 310 316 305 285 301 324 257 210 218 203 161 165 163 213 222 230 274 209 226 209
7 8 8 4 2 1 358 357 355 354 350 346 344 343 345 345 343 343 347 1 10 321 320 270 291 278 294 321 315 300 284 294 311 233 189 190 161 211 206 217 263 315 344 273 337 219 217
4 4 5 4 3 3 1 358 355 352 349 344 341 339 346 347 349 345 344 359 357 319 311 328 333 294 318 310 295 324 312 201 324 313 335 267 228 213 161 194 236 259 268 273 276 269 277
8 7 5 5 3 3 1 358 355 352 349 346 340 339 346 358 333 356 353 2 353 339 282 298 346 308 329 312 289 301 201 168 219 258 239 223 259 218 230 229 242 230 231 251 247 307 298
10 8 6 5 3 359 358 357 356 355 351 347 344 337 337 4 359 344 2 349 341 323 14 289 343 309 348 334 275 338 255 179 254 243 221 221 242 258 270 234 239 257 221 257 254 207 257
12 8 4 1 359 356 353 353 353 355 352 348 346 330 322 333 348 345 338 338 343 356 14 327 314 331 336 332 314 340 320 177 242 223 187 244 280 253 232 232 211 245 233 238 226 245 237
11 9 5 2 1 356 351 350 352 353 350 347 345 329 317 308 331 348 338 335 338 50 292 331 331 320 335 318 327 339 320 216 286 279 222 232 257 237 220 250 235 238 219 230 233 155 250
8 7 4 2 3 360 355 353 353 353 348 342 345 326 312 306 336 342 334 347 38 92 328 330 321 320 311 318 327 349 315 282 211 111 31 328 230 235 223 232 259 170 87 307 174 187 231
5 4 2 1 2 0 358 356 354 353 350 344 342 330 322 327 341 345 342 46 60 248 285 300 325 307 318 11 319 328 321 340 276 113 12 306 274 186 208 201 198 182 167 185 185 179 225
3 2 0 359 360 0 359 358 356 355 354 348 353 4 18 353 326 347 355 41 204 289 316 323 317 302 323 328 289 345 321 334 24 8 249 243 259 261 86 177 142 201 168 193 12 224 244
1 1 0 359 358 359 358 358 355 357 357 352 353 32 38 346 333 340 63 274 242 289 301 312 270 256 316 315 337 349 303 348 358 25 3 288 298 325 358 15 223 161 196 88 9 218 236
358 359 359 358 358 356 356 358 356 353 359 357 358 42 7 335 311 343 124 238 283 302 343 308 265 282 292 309 284 281 290 313 328 321 324 286 147 291 339 245 214 348 184 208 172 181 224
357 356 353 352 353 354 354 356 358 353 355 3 3 42 350 319 340 27 68 300 305 320 336 285 238 265 277 286 282 257 257 253 243 317 321 297 231 231 227 260 279 250 287 137 172 231 249
355 354 353 350 349 351 352 355 360 357 355 352 348 311 12 347 59 318 301 295 297 345 331 313 294 278 318 281 307 265 242 254 288 243 246 317 268 307 322 12 40 223 246 192 186 273 243
346 348 346 346 348 350 351 351 357 2 356 357 352 356 337 36 42 158 311 279 337 334 291 330 277 295 346 299 266 270 272 279 278 236 257 194 225 221 195 350 15 276 306 265 210 186 265
338 341 339 342 343 345 349 350 351 2 5 8 8 1 14 314 338 324 277 269 328 344 272 303 281 321 317 292 303 257 233 278 267 273 267 172 240 214 254 261 266 265 263 263 246 232 223
334 336 338 340 341 340 345 347 347 354 10 19 8 359 335 292 300 296 300 299 315 318 290 295 266 308 310 271 271 287 278 245 251 302 202 174 265 253 285 257 250 255 247 249 251 247 255
328 331 333 336 342 341 338 342 342 345 1 14 356 315 285 276 280 285 290 318 309 305 287 283 303 306 300 292 301 287 272 268 248 240 269 202 242 265 250 278 287 268 231 226 236 231 222
322 324 327 330 328 339 335 336 336 339 348 353 349 338 301 278 290 276 293 297 294 304 295 296 305 295 300 310 307 295 256 251 242 245 225 223 201 224 284 290 246 272 39 205 230 237 229
321 321 321 325 325 323 327 331 335 331 333 335 343 314 271 285 268 295 298 307 305 305 279 296 304 312 316 318 327 340 349 121 129 225 209 213 222 256 247 240 277 282 44 11 354 212 55
322 324 319 321 321 323 323 325 333 323 322 318 330 302 242 301 265 270 317 296 299 316 300 288 326 335 349 9 352 2 332 316 306 318 308 256 215 204 220 268 298 48 328 326 316 224 13
325 324 325 323 320 317 320 315 316 316 314 305 300 282 262 264 281 277 244 296 292 280 281 293 327 337 5 359 21 356 310 328 330 319 335 348 213 231 242 256 261 354 317 306 208 284 328
319 316 315 314 314 316 318 316 310 310 303 299 292 301 268 251 289 277 270 251 261 252 268 310 341 359 343 16 5 342 303 312 297 274 324 326 315 324 304 301 343 357 332 24 344 336 328
315 313 313 311 310 318 316 314 306 306 293 297 289 296 296 263 272 293 286 273 267 269 260 278 278 270 263 345 351 304 290 297 298 308 351 338 345 276 301 310 252 288 291 32 27 340 344